RADUGA 1 [-]

Last updated on Wed Jun 28 2023 00:02:57 GMT+0000 (Coordinated Universal Time)

1 08513U 75123A 23177.92374995 -.00000142 00000+0 00000+0 0 9999 2 08513 5.6049 283.3398 0007848 222.6215 183.7638 1.00290138184054

Satellite not in orbit

RADUGA 1 [-]